Tracking 29892 objects as of 21-Nov-2024
HD Live streaming from Space Station
objects crossing your sky now

STARLINK-6054

Track STARLINK-6054 now!
10-day predictions
STARLINK-6054 is classified as:


NORAD ID: 56465
Int'l Code: 2023-064T
Perigee: 577.4 km
Apogee: 581.0 km
Inclination: 70.0 °
Period: 96.1 minutes
Semi major axis: 6950 km
RCS: Unknown
Launch date: May 10, 2023
Source: United States (US)
Launch site: AIR FORCE WESTERN TEST RANGE (AFWTR)
Your satellite tracking list
Your tracking list is empty




NASA's NSSDC Master Catalog

Two Line Element Set (TLE):
1 56465U 23064T   24326.14781728 -.00000570  00000-0 -39963-4 0  9994
2 56465  70.0001 218.2627 0002597 276.8587  83.2276 14.98328435 85660
Source of the keplerian elements: AFSPC